Home   Weather   Londrina   Past weeks

Flag for Brazil Past Weather in Londrina, Paraná, Brazil — Yesterday and Last 2 Weeks

Now
91 °F

Scattered clouds.


Feels Like: 91 °F
Forecast: 66 / 88 °F
Wind: 13 mph from West

Location: Londrina Aeroporto

Current Time: Dec 5, 2016 at 4:53:02 pm

Latest Report: Dec 5, 2016 at 4:00 pm


Visibility: N/A

Pressure: 29.80 "Hg (27.82 "Hg at 615m altitude)

Humidity: 36%

Dew Point: 61 °F

Location of LondrinaLocation

Past Weather in Londrina — Graph

°F

Londrina Temperature Yesterday

Maximum temperature yesterday: 88 °F (at 3:00 pm)
Minimum temperature yesterday: 70 °F (at 2:00 am)
Average temperature yesterday: 77 °F

High & Low Weather Summary for the Past Weeks

 TemperatureHumidityPressure
High95 °F (Nov 26, 3:00 pm)100% (Nov 29, 7:00 am)30.12 "Hg (Nov 29, 7:00 am)
Low61 °F (Nov 21, 6:00 am)22% (Nov 20, 5:00 pm)29.68 "Hg (Dec 4, 6:00 pm)
Average77 °F66%29.94 "Hg
* Reported Nov 20 2:00 pm — Dec 5 2:00 pm, Londrina, Weather by CustomWeather, © 2016

Note: Actual official high and low records may vary slightly from our data, if they occured in-between our weather recording intervals... More about our weather records

Advertising

Londrina Weather History for the Previous 24 Hours

Scroll right to see more
 ConditionsComfort  
Time TempWeatherWind HumidityBarometerVisibility
2:00 pm
Mon, Dec 5
84 °FPartly sunny.5 mph55%29.86 "HgN/A
12:00 pm79 °FPartly sunny.7 mph65%29.89 "HgN/A
11:00 am75 °FPartly sunny.6 mph69%29.89 "HgN/A
10:00 am73 °FScattered clouds.5 mph74%29.89 "HgN/A
9:00 am70 °FPartly sunny.8 mph78%29.86 "HgN/A
8:00 am68 °FPartly sunny.3 mph78%29.86 "HgN/A
7:00 am66 °FSunny.No wind83%29.83 "Hg10 mi
6:00 am66 °FClear.3 mph83%29.80 "Hg10 mi
5:00 am66 °FClear.7 mph83%29.77 "Hg10 mi
4:00 am68 °FClear.5 mph83%29.77 "Hg10 mi
3:00 am68 °FClear.6 mph88%29.77 "Hg10 mi
2:00 am72 °FClear.No wind78%29.77 "Hg10 mi
1:00 am73 °FClear.2 mph74%29.77 "Hg10 mi
12:00 am73 °FClear.7 mph69%29.77 "Hg10 mi
11:00 pm
Sun, Dec 4
75 °FClear.6 mph69%29.77 "Hg10 mi
10:00 pm77 °FClear.6 mph69%29.74 "Hg10 mi
9:00 pm77 °FPassing clouds.6 mph69%29.74 "HgN/A
8:00 pm81 °FPassing clouds.10 mph58%29.71 "HgN/A
7:00 pm84 °FScattered clouds.12 mph48%29.68 "HgN/A
6:00 pm86 °FScattered clouds.14 mph46%29.68 "HgN/A
5:00 pm86 °FScattered clouds.10 mph46%29.71 "HgN/A
4:00 pm86 °FScattered clouds.15 mph46%29.71 "HgN/A
Weather by CustomWeather, © 2016

See weather overviewHow to use our weather pages